Wind_Speed
3 3 4 4 5 5 6 7 6 6 7 8 8 7 7 7 8 10 10 10 11 10 10 10 10 10 10 9 8 7 5 5 4 4 4 3 3 3 2 2 2 1 1
3 3 3 4 4 5 5 7 7 7 7 8 8 8 8 7 8 9 11 11 11 10 10 10 10 9 8 8 8 7 6 5 5 4 3 3 3 2 2 1 1 1 1
2 2 3 4 4 5 6 7 7 7 7 8 8 8 8 8 8 10 11 10 10 11 12 12 11 10 8 7 7 6 6 5 5 4 4 3 2 2 1 1 1 0 1
2 2 3 4 4 5 6 7 7 6 7 8 9 9 8 8 8 10 11 11 10 11 11 12 11 10 9 8 7 6 5 5 5 5 4 3 2 2 1 1 1 1 1
2 2 3 4 4 5 6 6 6 7 7 8 8 8 8 8 9 10 11 11 11 11 11 11 10 10 9 8 7 5 5 4 5 5 4 3 3 2 1 2 2 2 2
2 2 4 4 5 5 5 6 6 7 7 7 7 7 8 8 8 9 10 11 11 11 11 11 10 10 9 8 7 6 5 5 5 5 4 4 3 2 1 2 2 3 3
2 3 4 4 4 4 5 5 5 5 6 6 7 7 8 8 9 9 10 10 11 12 12 11 11 10 9 8 7 6 6 5 5 5 5 4 3 2 1 2 3 3 3
2 3 4 4 4 4 5 5 4 5 5 5 6 7 7 8 8 9 10 10 11 11 11 12 11 11 10 8 8 7 6 6 6 5 4 4 4 3 2 2 2 3 4
2 3 4 4 4 5 5 4 5 4 4 5 6 7 7 7 8 9 9 11 12 12 11 11 11 10 10 8 8 7 7 6 5 5 4 4 4 3 2 2 3 3 3
3 3 3 4 4 4 4 5 5 5 4 5 5 6 7 8 9 9 9 11 11 11 12 12 11 11 10 9 7 7 7 6 5 5 3 3 4 3 3 3 2 3 3
4 3 3 4 3 3 3 4 5 4 4 4 5 6 7 7 8 9 9 10 10 11 11 11 11 11 10 9 8 7 7 6 5 5 4 4 4 3 3 3 3 3 3
4 3 3 3 2 2 2 3 4 4 4 4 5 6 7 7 8 9 9 10 10 10 11 11 12 11 10 9 9 8 7 6 6 6 5 5 5 4 4 4 4 4 4
4 4 3 3 2 1 1 2 3 4 4 4 4 5 7 8 8 9 9 10 10 10 11 11 11 11 10 9 9 8 7 7 7 7 7 6 6 6 6 5 5 5 5
4 4 4 4 3 1 1 2 3 4 4 5 5 5 6 7 8 9 10 10 9 10 10 11 10 10 9 9 8 8 8 7 8 8 7 7 7 8 7 7 7 7 7
5 5 4 3 3 2 2 2 3 4 4 5 5 6 6 7 7 8 9 9 9 10 10 10 10 10 9 9 9 9 9 8 8 8 8 8 8 9 9 8 8 8 8
6 4 4 3 3 3 3 3 4 4 5 5 5 5 5 7 7 7 8 9 8 8 9 9 8 9 9 9 10 10 9 9 9 8 8 8 9 9 9 9 9 10 9
6 5 4 4 3 3 3 4 4 5 5 5 5 5 5 6 6 7 7 8 8 8 8 8 7 7 8 8 9 9 9 9 9 9 10 9 9 10 10 9 9 10 9
6 5 4 4 4 4 4 4 5 5 5 5 4 4 4 5 6 6 7 7 8 8 8 8 7 7 8 8 8 9 9 9 9 10 10 10 9 9 9 9 10 10 10
6 5 4 4 4 3 3 3 4 4 4 4 4 4 3 4 5 6 6 6 7 8 9 8 7 7 7 8 8 9 9 9 10 10 10 10 10 10 10 10 10 11 11
6 5 5 5 5 4 2 2 2 3 4 4 3 3 3 3 4 5 6 6 6 7 8 8 7 7 8 9 9 9 9 9 9 10 10 10 11 11 11 10 11 12 12
7 5 5 4 5 4 3 2 2 2 3 3 3 2 2 3 3 4 5 5 6 7 7 8 7 7 8 9 10 9 10 9 9 9 9 10 11 11 11 11 11 12 12
7 6 5 4 4 3 3 2 2 2 2 3 3 2 2 2 3 3 3 3 4 5 6 7 7 7 7 8 8 9 9 9 9 10 10 10 11 11 11 11 12 12 12
6 6 6 5 4 4 2 1 1 1 1 0 1 2 2 2 2 2 2 3 3 4 5 5 6 7 7 7 8 8 9 9 10 10 10 10 10 11 11 11 12 12 13
6 6 6 5 5 4 2 1 1 1 1 1 1 1 1 2 2 2 3 3 3 3 4 4 5 6 7 7 8 8 8 9 10 10 11 11 11 11 11 12 12 13 12
6 6 6 5 4 4 3 3 3 3 2 2 2 2 3 3 2 3 3 3 3 4 4 5 6 6 6 7 7 8 9 10 11 11 12 13 13 12 12 12 12 13 13
6 6 6 5 5 4 4 4 3 3 3 3 3 3 3 3 3 3 4 4 4 4 5 5 6 6 7 7 8 9 9 10 11 12 12 13 13 13 13 13 13 14 14
Wind_Direction
136 156 165 171 174 179 179 179 173 169 164 164 166 171 179 182 180 172 172 171 170 171 170 168 171 173 176 177 177 177 175 170 177 167 158 149 135 132 134 125 118 98 113
137 152 168 171 173 178 181 178 180 181 178 174 174 178 178 181 184 180 179 177 177 177 170 167 170 175 177 176 179 176 173 170 171 169 176 170 162 155 156 132 89 83 121
134 136 156 171 180 183 181 180 179 180 185 181 181 180 182 185 190 189 184 180 178 175 173 171 169 173 173 175 177 176 175 173 176 179 185 189 192 188 196 211 232 162 163
137 142 146 167 183 181 175 175 177 182 184 183 182 181 183 186 188 186 178 179 178 174 171 172 174 175 174 179 179 175 180 185 187 185 188 202 214 204 220 225 242 257 255
142 163 159 159 167 168 171 172 175 181 182 180 182 182 181 181 180 181 179 178 180 176 174 173 176 177 178 182 182 181 188 196 193 187 192 207 208 200 221 222 250 278 263
138 150 154 159 163 166 173 175 180 178 182 183 184 183 179 178 178 181 183 181 181 180 180 177 177 179 183 184 187 191 195 199 193 197 197 203 204 211 219 231 249 258 264
135 150 153 159 160 170 178 184 183 176 178 184 188 191 182 178 177 179 182 183 182 184 183 181 178 179 183 187 189 190 193 194 194 198 202 199 211 235 252 260 254 265 262
129 153 157 160 161 170 185 185 179 171 174 182 187 188 182 178 180 183 185 182 179 181 180 182 181 182 183 185 187 192 193 200 198 200 203 203 214 227 247 257 267 275 268
112 155 157 160 161 168 182 183 168 168 169 176 176 176 180 180 185 188 188 184 183 184 183 185 184 185 186 185 188 194 199 202 203 205 207 208 215 225 245 259 272 274 271
100 123 141 139 151 166 180 175 169 171 168 172 174 177 181 182 187 191 188 189 188 189 189 190 188 184 186 191 194 196 201 204 204 207 210 218 220 221 239 266 269 269 271
85 102 128 128 134 153 186 174 171 178 176 177 183 185 183 185 187 188 189 188 187 188 189 190 188 186 189 196 199 201 204 205 211 213 208 204 212 226 237 259 261 261 263
84 90 116 124 118 141 182 187 180 191 187 189 192 189 187 180 184 188 191 190 187 187 188 189 187 190 196 201 204 204 209 216 219 226 220 221 222 227 238 258 263 256 252
72 78 81 89 97 122 167 181 187 199 197 194 187 182 182 174 174 180 181 184 185 188 191 191 191 194 196 202 206 209 214 218 227 232 231 235 228 231 240 255 260 258 256
69 69 73 69 71 73 5 189 179 194 182 169 161 164 170 166 169 173 176 178 182 188 195 197 194 197 201 206 212 218 223 230 235 238 238 241 235 235 241 250 254 255 261
59 64 64 60 60 49 30 148 159 161 156 147 143 150 159 159 163 166 171 175 182 188 190 193 196 200 207 212 216 220 226 233 241 243 249 242 241 243 243 247 253 254 258
51 56 57 60 58 63 77 112 131 144 141 133 133 140 152 160 163 168 175 178 180 185 188 191 196 203 211 218 221 225 232 240 246 249 251 248 248 247 246 250 252 255 259
45 50 53 47 57 81 93 109 121 128 132 129 128 138 148 164 168 172 178 183 184 184 192 199 202 211 218 225 231 237 237 249 250 255 255 253 254 253 254 257 255 258 261
39 46 51 52 67 83 92 100 114 124 129 133 130 135 144 160 167 176 178 185 186 188 194 200 205 213 219 229 234 239 247 255 256 259 259 257 259 261 260 260 258 256 261
39 47 51 53 56 66 76 97 112 109 116 129 130 127 141 162 178 181 177 184 189 193 199 206 213 218 222 228 233 239 246 252 255 258 260 259 257 258 259 261 261 259 262
31 38 42 44 45 48 52 88 112 109 112 125 135 132 138 152 169 181 185 191 196 198 205 211 218 223 228 235 240 242 247 253 255 258 257 260 257 257 258 259 259 260 263
20 23 29 34 36 31 42 64 96 121 126 140 151 158 151 155 171 185 188 194 202 206 210 216 221 227 234 239 241 244 249 252 254 255 261 265 263 261 260 263 261 261 262
12 14 18 18 15 14 23 48 69 98 142 164 180 185 197 188 177 185 184 191 207 215 219 222 226 231 236 240 242 248 252 254 256 260 261 261 264 264 262 259 259 262 265
1 5 11 11 1 346 340 20 53 80 63 127 157 183 193 192 193 188 196 196 214 223 224 228 228 228 237 247 253 258 262 260 264 262 267 267 265 263 261 263 265 266 270
345 351 359 4 1 343 325 319 319 317 325 318 294 242 241 233 229 228 219 219 232 238 232 226 232 240 246 252 257 264 265 267 268 267 273 272 272 271 270 270 271 271 272
332 338 344 350 350 340 331 313 288 282 287 294 286 262 261 260 248 247 247 248 247 249 245 242 247 250 255 258 265 271 273 275 274 274 277 279 278 275 274 274 273 272 271
321 323 327 334 335 323 322 321 300 285 282 283 281 284 280 275 270 273 275 271 271 270 268 266 261 257 263 273 282 283 282 282 281 278 278 279 280 277 273 271 271 271 269
Height
5885 5884 5884 5884 5884 5884 5884 5884 5884 5884 5884 5884 5885 5886 5886 5887 5887 5888 5889 5890 5891 5892 5893 5894 5896 5897 5898 5900 5901 5902 5903 5904 5904 5905 5906 5906 5906 5907 5907 5907 5907 5907 5907
5885 5884 5883 5883 5883 5883 5883 5884 5884 5884 5884 5884 5885 5885 5886 5886 5886 5887 5888 5889 5890 5892 5893 5894 5896 5898 5899 5900 5901 5902 5903 5904 5905 5906 5906 5907 5907 5907 5908 5908 5908 5908 5908
5884 5883 5882 5882 5882 5882 5882 5883 5884 5883 5884 5884 5884 5885 5885 5885 5886 5887 5887 5888 5890 5891 5892 5894 5896 5898 5899 5900 5901 5902 5903 5905 5906 5906 5907 5907 5907 5908 5908 5908 5908 5908 5908
5884 5883 5882 5882 5882 5882 5882 5883 5883 5883 5883 5883 5884 5884 5884 5884 5884 5885 5887 5888 5889 5890 5892 5894 5897 5898 5899 5900 5902 5903 5904 5905 5906 5906 5907 5907 5907 5908 5908 5909 5909 5909 5909
5884 5883 5882 5882 5882 5882 5882 5883 5883 5883 5883 5883 5883 5883 5883 5883 5884 5885 5886 5888 5889 5890 5892 5895 5897 5898 5900 5901 5902 5903 5904 5905 5906 5906 5907 5907 5908 5908 5908 5909 5909 5909 5909
5883 5882 5882 5882 5882 5882 5882 5882 5883 5883 5883 5883 5883 5883 5882 5883 5884 5885 5886 5887 5889 5891 5893 5894 5896 5898 5900 5901 5902 5903 5904 5905 5905 5906 5907 5907 5908 5908 5908 5909 5909 5909 5909
5883 5882 5882 5882 5882 5882 5882 5882 5882 5882 5882 5882 5882 5882 5882 5882 5883 5884 5886 5887 5889 5891 5892 5894 5896 5898 5900 5901 5902 5903 5904 5905 5905 5906 5907 5907 5908 5908 5908 5908 5909 5909 5908
5883 5883 5882 5882 5882 5882 5882 5882 5882 5882 5882 5882 5882 5882 5882 5882 5883 5884 5886 5887 5889 5890 5892 5894 5896 5898 5900 5901 5902 5903 5904 5905 5905 5906 5906 5907 5908 5908 5908 5908 5908 5908 5908
5883 5882 5882 5882 5882 5882 5882 5882 5882 5882 5882 5882 5882 5882 5882 5883 5883 5884 5885 5887 5889 5890 5892 5894 5896 5898 5899 5900 5902 5903 5904 5904 5905 5905 5906 5907 5907 5908 5908 5908 5908 5908 5908
5883 5883 5883 5882 5882 5882 5882 5882 5882 5882 5882 5882 5882 5882 5882 5882 5883 5883 5885 5886 5888 5890 5892 5894 5896 5898 5899 5901 5902 5902 5903 5904 5904 5905 5906 5907 5907 5908 5908 5908 5908 5908 5908
5884 5883 5883 5883 5883 5882 5882 5882 5882 5882 5881 5881 5881 5882 5882 5882 5883 5883 5885 5886 5888 5890 5892 5894 5896 5898 5899 5900 5901 5902 5903 5903 5904 5905 5906 5906 5907 5907 5907 5908 5908 5908 5908
5885 5884 5884 5883 5883 5883 5882 5882 5882 5881 5881 5881 5881 5881 5882 5882 5882 5883 5884 5886 5888 5890 5892 5894 5895 5897 5898 5900 5900 5901 5902 5903 5904 5904 5905 5906 5906 5907 5907 5907 5907 5907 5907
5886 5885 5885 5884 5883 5883 5882 5882 5881 5881 5881 5880 5881 5881 5880 5881 5882 5882 5884 5886 5888 5890 5892 5893 5895 5897 5898 5899 5900 5901 5902 5902 5903 5904 5904 5905 5905 5906 5906 5906 5906 5906 5907
5887 5886 5885 5885 5884 5883 5882 5881 5880 5881 5881 5880 5880 5880 5880 5881 5882 5883 5885 5886 5888 5890 5892 5893 5895 5896 5898 5899 5900 5900 5901 5902 5902 5903 5903 5904 5904 5904 5904 5905 5905 5905 5906
5888 5887 5886 5885 5884 5883 5881 5880 5880 5881 5881 5881 5881 5881 5881 5882 5883 5884 5886 5887 5888 5890 5892 5893 5895 5896 5898 5898 5899 5900 5901 5901 5901 5902 5902 5903 5903 5903 5903 5903 5904 5904 5904
5889 5887 5887 5886 5885 5883 5882 5881 5881 5881 5881 5882 5882 5882 5882 5883 5884 5885 5886 5888 5889 5890 5891 5893 5895 5896 5897 5898 5899 5899 5900 5900 5901 5901 5901 5901 5901 5902 5902 5902 5902 5902 5902
5890 5889 5888 5887 5885 5884 5883 5882 5882 5882 5882 5882 5882 5883 5883 5884 5884 5885 5887 5888 5889 5890 5891 5893 5894 5895 5896 5897 5898 5898 5899 5899 5899 5900 5900 5900 5900 5900 5901 5901 5901 5901 5901
5891 5890 5889 5888 5886 5885 5884 5884 5883 5883 5883 5883 5883 5884 5884 5884 5885 5886 5887 5888 5889 5890 5892 5893 5894 5895 5896 5897 5897 5897 5898 5898 5898 5898 5898 5898 5899 5899 5899 5899 5899 5900 5900
5893 5891 5890 5889 5888 5886 5885 5885 5884 5884 5884 5884 5884 5885 5885 5885 5885 5886 5887 5888 5889 5890 5891 5892 5894 5894 5895 5896 5896 5897 5897 5897 5897 5897 5897 5897 5897 5897 5897 5897 5897 5898 5898
5894 5893 5892 5890 5889 5887 5886 5886 5885 5885 5885 5885 5885 5886 5886 5885 5885 5886 5887 5888 5889 5890 5890 5892 5893 5894 5895 5895 5895 5896 5895 5895 5895 5895 5895 5895 5895 5895 5895 5895 5895 5895 5895
5896 5894 5892 5891 5890 5889 5888 5887 5886 5886 5886 5886 5886 5886 5886 5886 5886 5886 5887 5888 5888 5889 5890 5891 5892 5893 5893 5894 5894 5894 5894 5894 5894 5894 5893 5893 5893 5893 5892 5892 5892 5892 5892
5897 5895 5893 5892 5891 5890 5889 5888 5887 5887 5887 5887 5887 5887 5887 5887 5887 5887 5888 5888 5888 5889 5890 5890 5891 5892 5892 5892 5893 5893 5892 5893 5892 5892 5891 5891 5891 5890 5890 5890 5890 5890 5890
5897 5896 5894 5893 5892 5891 5890 5889 5888 5888 5888 5888 5888 5888 5888 5888 5888 5888 5888 5889 5889 5889 5889 5890 5890 5891 5891 5891 5891 5891 5891 5891 5890 5890 5889 5889 5888 5888 5887 5887 5887 5887 5887
5898 5896 5895 5894 5892 5892 5891 5890 5889 5889 5889 5889 5889 5888 5888 5888 5888 5888 5888 5889 5889 5889 5889 5889 5890 5890 5890 5890 5889 5889 5889 5889 5888 5888 5887 5887 5886 5885 5885 5884 5884 5884 5884
5898 5896 5895 5894 5893 5892 5891 5891 5890 5889 5889 5889 5889 5889 5888 5888 5888 5889 5888 5888 5888 5888 5888 5889 5889 5889 5889 5888 5888 5888 5888 5887 5886 5886 5885 5884 5883 5882 5882 5882 5882 5882 5881
5897 5896 5895 5894 5893 5892 5891 5891 5890 5890 5889 5889 5889 5889 5888 5888 5888 5888 5888 5888 5888 5887 5888 5888 5888 5887 5887 5887 5887 5886 5886 5885 5884 5884 5883 5882 5881 5880 5879 5879 5879 5879 5878